Weather History for KUIL - March, 2014

Change the Weather History Date:

Wednesday, March 5, 2014

  Actual Average Record
Temperature  
Mean Temperature 52 °F 43 °F  
Max Temperature 55 °F 50 °F 62 °F (1984)
Min Temperature 49 °F 36 °F 21 °F (1976)
Degree Days  
Heating Degree Days 13 22  
Month to date heating degree days 90 110  
Since 1 July heating degree days 3284 3955  
Cooling Degree Days 0 0  
Month to date cooling degree days 0 0  
Year to date cooling degree days 0 0  
Growing Degree Days 1 (Base 50)    
Moisture  
Dew Point 50 °F    
Average Humidity 95    
Maximum Humidity 100    
Minimum Humidity 89    
Precipitation  
Precipitation 1.65 in 0.36 in 1.65 in (2014)
Month to date precipitation 4.00 1.83  
Year to date precipitation 26.57 26.79  
Sea Level Pressure  
Sea Level Pressure 29.54 in    
Wind  
Wind Speed 10 mph (SSE)    
Max Wind Speed 21 mph    
Max Gust Speed 35 mph    
Visibility 3 miles    
Events Fog , Rain    
T = Trace of Precipitation, MM = Missing Value Source: NWS Daily Summary

Daily Weather History Graph

Daily Weather History Graph

Search for Another Location

Airport or City:

Trip Planner

Search our weather history database for the weather conditions in past years. The results will help you decide how hot, cold, wet, or windy it might be!

Date:

Astronomy

Mar. 05, 2014 Rise Set
Actual Time 6:51 AM PST 6:09 PM PST
Civil Twilight 6:20 AM PST 6:40 PM PST
Nautical Twilight 5:44 AM PST 7:15 PM PST
Astronomical Twilight 5:08 AM PST 7:52 PM PST
Moon 8:58 AM PST (3/5) 11:48 PM PST (3/5)
Length of Visible Light 12h 19m
Length of Day
11h 17m
Waxing Crescent, 24% of the Moon is Illuminated
Mar 5
Waxing Crescent
Mar 8
First Quarter
Mar 16
Full
Mar 23
Last Quarter
Mar 30
New

Hourly Weather History & Observations

Time (PST) Temp. Dew Point Humidity Pressure Visibility Wind Dir Wind Speed Gust Speed Precip Events Conditions
12:06 AM 48.9 °F 48.9 °F 100% 29.74 in 2.0 mi ESE 3.5 mph - 0.06 in Rain Heavy Rain
12:22 AM 48.9 °F 48.9 °F 100% 29.73 in 3.0 mi ESE 4.6 mph - 0.11 in Rain Rain
12:53 AM 50.0 °F 50.0 °F 100% 29.72 in 4.0 mi SE 5.8 mph - 0.19 in Rain Light Rain
1:24 AM 50.0 °F 50.0 °F 100% 29.68 in 4.0 mi SE 6.9 mph - 0.03 in Rain Light Rain
1:49 AM 50.0 °F 50.0 °F 100% 29.65 in 8.0 mi ESE 5.8 mph - 0.04 in   Overcast
1:53 AM 50.0 °F 50.0 °F 100% 29.65 in 7.0 mi East 6.9 mph - 0.04 in Rain Light Rain
2:06 AM 48.9 °F 48.9 °F 100% 29.65 in 2.0 mi SSE 4.6 mph - 0.01 in Rain Light Rain
2:09 AM 48.9 °F 48.9 °F 100% 29.65 in 1.5 mi SSE 3.5 mph - 0.01 in Rain Light Rain
2:18 AM 48.9 °F 48.9 °F 100% 29.65 in 1.2 mi ESE 3.5 mph - 0.03 in Rain Light Rain
2:39 AM 50.0 °F 50.0 °F 100% 29.64 in 1.2 mi Variable 4.6 mph - 0.07 in Rain Light Rain
2:50 AM 50.0 °F 50.0 °F 100% 29.63 in 1.8 mi SE 4.6 mph - 0.08 in Rain Light Rain
2:53 AM 51.1 °F 51.1 °F 100% 29.62 in 2.0 mi SE 6.9 mph - 0.08 in Rain Light Rain
3:19 AM 51.1 °F 51.1 °F 100% 29.61 in 3.0 mi SSE 9.2 mph 19.6 mph 0.06 in Rain Light Rain
3:32 AM 51.1 °F 51.1 °F 100% 29.61 in 2.0 mi Variable 6.9 mph 21.9 mph 0.08 in Rain Rain
3:40 AM 51.1 °F 51.1 °F 100% 29.60 in 1.8 mi Variable 6.9 mph - 0.11 in Rain Rain
3:53 AM 51.1 °F 51.1 °F 100% 29.60 in 1.2 mi SSE 8.1 mph 17.3 mph 0.14 in Rain Light Rain
4:50 AM 51.8 °F 50.0 °F 94% 29.57 in 1.8 mi SE 8.1 mph - 0.16 in Rain Rain
4:53 AM 51.1 °F 50.0 °F 96% 29.57 in 2.0 mi Variable 5.8 mph - 0.17 in Rain Rain
5:01 AM 50.0 °F 50.0 °F 100% 29.54 in 2.5 mi SE 11.5 mph 19.6 mph 0.02 in Rain Rain
5:08 AM 51.1 °F 50.0 °F 96% 29.55 in 4.0 mi Variable 6.9 mph 19.6 mph 0.03 in Rain Light Rain
5:19 AM 50.0 °F 50.0 °F 100% 29.57 in 8.0 mi SSE 4.6 mph - 0.03 in   Overcast
5:34 AM 51.1 °F 50.0 °F 96% 29.58 in 1.8 mi South 5.8 mph - 0.03 in Rain Light Rain
5:39 AM 51.1 °F 50.0 °F 96% 29.58 in 1.2 mi SSE 6.9 mph - 0.04 in Rain Light Rain
5:53 AM 51.1 °F 50.0 °F 96% 29.58 in 1.2 mi Variable 5.8 mph - 0.05 in Rain Light Rain
6:12 AM 50.0 °F 50.0 °F 100% 29.58 in 1.5 mi South 9.2 mph - 0.03 in Rain Light Rain
6:20 AM 50.0 °F 50.0 °F 100% 29.58 in 1.0 mi Variable 6.9 mph - 0.05 in Rain Rain
6:44 AM 50.0 °F 50.0 °F 100% 29.58 in 1.5 mi SSW 8.1 mph - 0.15 in Rain Rain
6:53 AM 50.0 °F 50.0 °F 100% 29.59 in 1.2 mi South 8.1 mph 18.4 mph 0.21 in Rain Heavy Rain
7:02 AM 50.0 °F 50.0 °F 100% 29.60 in 1.0 mi SSW 10.4 mph - 0.03 in Rain Rain
7:18 AM 50.0 °F 50.0 °F 100% 29.60 in 1.5 mi SW 12.7 mph 21.9 mph 0.06 in Rain Light Rain
7:26 AM 48.9 °F 48.9 °F 100% 29.61 in 1.0 mi SW 12.7 mph 21.9 mph 0.06 in Rain Light Rain
7:36 AM 48.9 °F 48.9 °F 100% 29.62 in 0.5 mi SW 13.8 mph 21.9 mph 0.06 in Fog , Rain Light Rain
7:53 AM 48.9 °F 48.9 °F 100% 29.64 in 0.5 mi SW 12.7 mph 21.9 mph 0.07 in Fog Fog
8:08 AM 48.9 °F 48.9 °F 100% 29.65 in 1.0 mi SW 16.1 mph 20.7 mph N/A   Overcast
8:19 AM 48.9 °F 48.9 °F 100% 29.65 in 0.8 mi SW 11.5 mph - N/A   Overcast
8:26 AM 48.9 °F 48.9 °F 100% 29.66 in 1.0 mi SSW 11.5 mph - N/A   Overcast
8:53 AM 48.9 °F 48.9 °F 100% 29.66 in 1.0 mi SSW 8.1 mph - N/A   Overcast
9:13 AM 48.9 °F 48.9 °F 100% 29.67 in 1.8 mi SSW 6.9 mph - N/A   Overcast
9:38 AM 48.9 °F 48.9 °F 100% 29.68 in 2.5 mi South 6.9 mph - N/A   Overcast
9:53 AM 50.0 °F 50.0 °F 100% 29.68 in 2.0 mi South 8.1 mph - N/A   Overcast
10:02 AM 50.0 °F 50.0 °F 100% 29.68 in 1.8 mi Variable 6.9 mph - N/A   Overcast
10:09 AM 50.0 °F 50.0 °F 100% 29.68 in 2.5 mi South 10.4 mph - N/A   Overcast
10:53 AM 50.0 °F 50.0 °F 100% 29.68 in 2.5 mi South 9.2 mph - N/A   Overcast
11:31 AM 51.1 °F 50.0 °F 96% 29.67 in 3.0 mi Variable 6.9 mph - N/A   Overcast
11:53 AM 51.1 °F 50.0 °F 96% 29.67 in 4.0 mi South 10.4 mph - N/A   Overcast
12:53 PM 54.0 °F 52.0 °F 93% 29.62 in 5.0 mi South 9.2 mph - N/A   Mostly Cloudy
1:26 PM 54.0 °F 52.0 °F 93% 29.59 in 5.0 mi Variable 6.9 mph - N/A   Scattered Clouds
1:41 PM 54.0 °F 51.1 °F 90% 29.57 in 5.0 mi SSW 6.9 mph - N/A   Mostly Cloudy
1:53 PM 52.0 °F 50.0 °F 93% 29.56 in 5.0 mi South 8.1 mph - N/A   Mostly Cloudy
2:09 PM 52.0 °F 50.0 °F 93% 29.55 in 6.0 mi South 6.9 mph - N/A   Scattered Clouds
2:53 PM 53.1 °F 50.0 °F 89% 29.52 in 5.0 mi SE 3.5 mph - N/A   Clear
3:53 PM 54.0 °F 50.0 °F 86% 29.47 in 6.0 mi Calm Calm - N/A   Mostly Cloudy
4:27 PM 53.1 °F 50.0 °F 89% 29.46 in 1.8 mi SSE 9.2 mph 16.1 mph 0.00 in Rain Rain
4:53 PM 51.1 °F 50.0 °F 96% 29.44 in 1.5 mi ESE 6.9 mph - 0.07 in Rain Light Rain
5:29 PM 50.0 °F 50.0 °F 100% 29.39 in 3.0 mi ENE 6.9 mph - 0.08 in Rain Light Rain
5:53 PM 50.0 °F 50.0 °F 100% 29.38 in 3.0 mi East 5.8 mph - 0.10 in Rain Rain
6:02 PM 50.0 °F 50.0 °F 100% 29.37 in 2.5 mi ENE 4.6 mph - 0.02 in Rain Rain
6:31 PM 50.0 °F 48.9 °F 96% 29.34 in 3.0 mi East 12.7 mph 18.4 mph 0.12 in Rain Rain
6:46 PM 50.0 °F 50.0 °F 100% 29.35 in 3.0 mi East 10.4 mph - 0.14 in Rain Rain
6:51 PM 50.0 °F 50.0 °F 100% 29.36 in 2.0 mi SE 9.2 mph 17.3 mph 0.14 in Rain Light Rain
6:53 PM 50.0 °F 50.0 °F 100% 29.36 in 1.8 mi SE 11.5 mph 17.3 mph 0.15 in Rain Light Rain
6:58 PM 51.1 °F 51.1 °F 100% 29.36 in 1.2 mi SE 13.8 mph 20.7 mph 0.01 in Rain Rain
7:15 PM 52.0 °F 52.0 °F 100% 29.35 in 1.5 mi South 16.1 mph 27.6 mph 0.05 in Rain Light Rain
7:53 PM 52.0 °F 51.1 °F 97% 29.35 in 1.5 mi South 13.8 mph 28.8 mph 0.07 in Rain Light Rain
8:01 PM 51.1 °F 51.1 °F 100% 29.35 in 3.0 mi South 13.8 mph 31.1 mph 0.01 in Rain Light Rain
8:19 PM 51.1 °F 51.1 °F 100% 29.35 in 1.8 mi South 12.7 mph 28.8 mph 0.01 in Rain Light Rain
8:32 PM 51.1 °F 51.1 °F 100% 29.35 in 3.0 mi South 15.0 mph 28.8 mph 0.05 in Rain Light Rain
8:46 PM 51.1 °F 51.1 °F 100% 29.35 in 2.5 mi South 17.3 mph 33.4 mph 0.06 in Rain Rain
8:53 PM 51.1 °F 51.1 °F 100% 29.35 in 3.0 mi South 15.0 mph 33.4 mph 0.08 in Rain Light Rain
9:53 PM 51.1 °F 50.0 °F 96% 29.34 in 4.0 mi South 18.4 mph 29.9 mph 0.01 in Rain Light Rain
9:58 PM 50.0 °F 50.0 °F 100% 29.34 in 1.8 mi South 12.7 mph 29.9 mph 0.02 in Rain Heavy Rain
10:14 PM 51.1 °F 50.0 °F 96% 29.34 in 3.0 mi South 13.8 mph 27.6 mph 0.08 in Rain Light Rain
10:53 PM 50.0 °F 50.0 °F 100% 29.36 in 4.0 mi South 15.0 mph 27.6 mph 0.08 in   Overcast
11:19 PM 50.0 °F 48.9 °F 96% 29.35 in 2.0 mi North - - 0.02 in Rain Light Rain
11:27 PM 50.0 °F 50.0 °F 100% 29.36 in 1.2 mi South 11.5 mph 23.0 mph 0.04 in Rain Heavy Rain
11:44 PM 50.0 °F 50.0 °F 100% 29.36 in 2.0 mi South 13.8 mph 27.6 mph 0.15 in Rain Light Rain
11:53 PM 50.0 °F 50.0 °F 100% 29.37 in 4.0 mi SSW 24.2 mph 34.5 mph 0.16 in   Overcast